This is the latest recevied weather packets stored in our database for station/object WD4IXD. If no packets are shown the sender has not sent any weather packets the latest 10 day(s).
| Time | Temp. | Humidity | Pressure | Rain* | Wind** | Luminosity | Snow |
|---|---|---|---|---|---|---|---|
| 1777395915 | 13.89° C | 51% | 1016.1 hPa | 0 mm | - | 919 W/m² | - |
| 1777395603 | 13.89° C | 51% | 1016 hPa | 0 mm | - | 896 W/m² | - |
| 1777395315 | 13.89° C | 53% | 1016.1 hPa | 0 mm | - | 833 W/m² | - |
| 1777395004 | 13.33° C | 54% | 1016 hPa | 0 mm | - | 780 W/m² | - |
| 1777394715 | 12.78° C | 56% | 1016 hPa | 0 mm | - | 819 W/m² | - |
| 1777394404 | 12.22° C | 58% | 1016.1 hPa | 0 mm | - | 784 W/m² | - |
| 1777394116 | 12.22° C | 60% | 1016.1 hPa | 0 mm | - | 752 W/m² | - |
| 1777393804 | 11.67° C | 60% | 1016.1 hPa | 0 mm | - | 698 W/m² | - |
| 1777393515 | 11.11° C | 64% | 1016 hPa | 0 mm | - | 686 W/m² | - |
| 1777393204 | 11.11° C | 69% | 1016.1 hPa | 0 mm | - | 710 W/m² | - |
| 1777392915 | 10.56° C | 71% | 1016.1 hPa | 0 mm | - | 661 W/m² | - |
| 1777392615 | 10° C | 74% | 1016 hPa | 0 mm | - | 587 W/m² | - |
| 1777392304 | 9.44° C | 76% | 1016.1 hPa | 0 mm | - | 548 W/m² | - |
| 1777392004 | 9.44° C | 78% | 1016.1 hPa | 0 mm | - | 538 W/m² | - |
| 1777391704 | 8.89° C | 80% | 1016.1 hPa | 0 mm | - | 536 W/m² | - |
| 1777391415 | 8.33° C | 80% | 1016.2 hPa | 0 mm | - | 538 W/m² | - |
| 1777391103 | 8.33° C | 82% | 1016.1 hPa | 0 mm | - | 541 W/m² | - |
| 1777390815 | 7.78° C | 83% | 1016.3 hPa | 0 mm | - | 550 W/m² | - |
| 1777390503 | 7.22° C | 84% | 1016.3 hPa | 0 mm | - | 555 W/m² | - |
| 1777390214 | 7.78° C | 85% | 1016.3 hPa | 0 mm | - | 564 W/m² | - |
| 1777389903 | 7.22° C | 87% | 1016.5 hPa | 0 mm | - | 615 W/m² | - |
| 1777389604 | 6.67° C | 87% | 1016.5 hPa | 0 mm | - | 599 W/m² | - |
| 1777389315 | 6.11° C | 87% | 1016.6 hPa | 0 mm | - | 214 W/m² | - |
| 1777389004 | 6.11° C | 88% | 1016.7 hPa | 0 mm | - | 209 W/m² | - |
| 1777388715 | 6.11° C | 88% | 1016.7 hPa | 0 mm | - | 179 W/m² | - |
* Rain latest hour (hover to see other rain measurements)
** Current wind speed in m/s (hover to see current wind gust speed)